This is the latest recevied weather packets stored in our database for station/object SV9TNF-2. If no packets are shown the sender has not sent any weather packets the latest 10 day(s).
| Time | Temp. | Humidity | Pressure | Rain* | Wind** | Luminosity | Snow |
|---|---|---|---|---|---|---|---|
| 1777594807 | 16.67° C | 55% | 1019.3 hPa | 0 mm | 4.92 m/s, 127° | - | - |
| 1777594506 | 16.67° C | 53% | 1019.3 hPa | 0 mm | 4.92 m/s, 265° | - | - |
| 1777594207 | 17.78° C | 51% | 1020 hPa | 0 mm | 4.92 m/s, 232° | - | - |
| 1777593907 | 17.78° C | 50% | 1020 hPa | 0 mm | 3.58 m/s, 221° | - | - |
| 1777593606 | 17.78° C | 50% | 1019.6 hPa | 0 mm | 5.36 m/s, 251° | - | - |
| 1777593307 | 17.22° C | 50% | 1019.6 hPa | 0 mm | 5.81 m/s, 252° | - | - |
| 1777593006 | 16.67° C | 53% | 1019.6 hPa | 0 mm | 1.79 m/s, 236° | - | - |
| 1777592706 | 16.67° C | 53% | 1019.6 hPa | 0 mm | 3.13 m/s, 224° | - | - |
| 1777592406 | 16.67° C | 53% | 1019.6 hPa | 0 mm | 2.68 m/s, 216° | - | - |
| 1777592106 | 16.67° C | 53% | 1020 hPa | 0 mm | 3.13 m/s, 227° | - | - |
| 1777591806 | 17.22° C | 51% | 1020 hPa | 0 mm | 0.89 m/s, 281° | - | - |
| 1777591506 | 17.22° C | 49% | 1020 hPa | 0 mm | 0.45 m/s, 235° | - | - |
| 1777591206 | 17.22° C | 49% | 1019.6 hPa | 0 mm | 1.79 m/s, 268° | - | - |
| 1777590905 | 17.22° C | 48% | 1019.6 hPa | 0 mm | 0.89 m/s, 236° | - | - |
| 1777590605 | 17.78° C | 48% | 1019.6 hPa | 0 mm | 1.34 m/s, 120° | - | - |
| 1777590305 | 17.78° C | 47% | 1019.6 hPa | 0 mm | 0.45 m/s, 73° | - | - |
| 1777590005 | 17.22° C | 50% | 1019.6 hPa | 0 mm | 0 m/s | - | - |
| 1777589705 | 17.22° C | 44% | 1019.6 hPa | 0 mm | 0.89 m/s, 203° | - | - |
| 1777589405 | 16.67° C | 46% | 1019.6 hPa | 0 mm | 1.79 m/s, 199° | - | - |
| 1777589105 | 16.67° C | 47% | 1019.6 hPa | 0 mm | 0.89 m/s, 244° | - | - |
| 1777588805 | 17.22° C | 46% | 1019.6 hPa | 0 mm | 1.34 m/s, 251° | - | - |
| 1777588505 | 16.67° C | 46% | 1019.6 hPa | 0 mm | 1.79 m/s, 270° | - | - |
| 1777588205 | 17.22° C | 46% | 1019.6 hPa | 0 mm | 2.24 m/s, 250° | - | - |
| 1777587905 | 17.22° C | 45% | 1020 hPa | 0 mm | 5.81 m/s, 191° | - | - |
| 1777587605 | 17.22° C | 44% | 1020 hPa | 0 mm | 5.81 m/s, 192° | - | - |
* Rain latest hour (hover to see other rain measurements)
** Current wind speed in m/s (hover to see current wind gust speed)